SHIJIAN-6 02A (SJ-6 02A)

Last updated on Mon Sep 21 2026 00:03:33 GMT+0000 (Coordinated Universal Time)

1 29505U 06046A 26263.64300666 .00004984 00000+0 24956-3 0 9990 2 29505 97.6285 305.4458 0003711 143.8666 216.2819 15.17852321 86744
UTC large
Height (km)
Speed (km/s)
/
Latitude / Longitude
Inclination (degrees)
Orbital Period (minutes)
Azimuth
Elevation
Range (km)
Doppler Factor

Next 0 passes for location: London (51.5072 / 0.1276)

No passes found over London.
SHIJIAN-6 02A (SJ-6 02A)